Regional Weather Roundup
Issued by NWS Northern Indiana

Home | Current Version | Previous Version | Graphics & Text | Print | Product List | Glossary On
Versions: 1 2 3 4 5 6 7 8 9 10 11 12 13 14 15 16 17 18 19 20 21 22 23 24 25 26 27 28 29 30 31 32 33 34 35 36 37 38 39 40 41 42 43 44 45 46 47 48 49 50
000
ASUS43 KIWX 300600
RWRIWX

KIWX WEATHER ROUNDUP
NATIONAL WEATHER SERVICE NORTHERN INDIANA
100 AM EST FRI JAN 30 2015

NOTE: "FAIR" INDICATES FEW OR NO CLOUDS BELOW 12,000 FEET WITH NO
SIGNIFICANT WEATHER AND/OR OBSTRUCTIONS TO VISIBILITY.

* THESE STATIONS ARE NOT UNDER NWS QUALITY CONTROL. THEY ALSO MAY NOT
  REPORT WEATHER SUCH AS PRECIPITATION OR FOG.

INZ001>027-300700-
NORTHERN INDIANA

CITY           SKY/WX    TMP DP  RH WIND       PRES   REMARKS
SOUTH BEND     CLOUDY    29  24  82 N20G25    30.24  WCI  16
6HR MIN TEMP:  29; 6HR MAX TEMP:  35; 6HR PCP: TRACE;

GOSHEN         CLOUDY    29  23  78 N21G29    30.20R WCI  16
6HR MIN TEMP:  29; 6HR MAX TEMP:  34; 6HR PCP:  0.01;

ANGOLA*        MOCLDY    28  21  74 N16G25    30.15R WCI  17
FORT WAYNE     FLURRIES  31  26  82 NW17G26   30.17R WCI  19
6HR MIN TEMP:  31; 6HR MAX TEMP:  33; 6HR PCP:  0.02;

PERU/GRISSOM   CLOUDY    33  25  74 NW14      30.20R WCI  23
6HR MIN TEMP:  32; 6HR MAX TEMP:  33; 6HR PCP: TRACE;


$$
INZ028>050-300700-
CENTRAL INDIANA

CITY           SKY/WX    TMP DP  RH WIND       PRES   REMARKS
LAFAYETTE      CLOUDY    33  24  69 NW9       30.27R WCI  25
6HR MIN TEMP:  33; 6HR MAX TEMP:  34;

KOKOMO*        CLOUDY    34  25  69 NW14G21   30.21S WCI  24
6HR MIN TEMP:  32; 6HR MAX TEMP:  34;

MUNCIE*        CLOUDY    33  27  78 W14       30.18S WCI  23
6HR MIN TEMP:  32; 6HR MAX TEMP:  33;

INDIANAPOLIS   FLURRIES  31  25  78 NW14      30.24S WCI  21
6HR MIN TEMP:  30; 6HR MAX TEMP:  31; 6HR PCP: TRACE;


$$
MIZ043>046-050>051-056>058-064>065-071>073-077>080-300700-
SOUTHWEST LOWER MICHIGAN

CITY           SKY/WX    TMP DP  RH WIND       PRES   REMARKS
BATTLE CREEK   PTCLDY    23  12  62 N20G29    30.20R WCI   8
6HR MIN TEMP:  23; 6HR MAX TEMP:  33; 6HR PCP: TRACE;

BENTON HARBOR  FLURRIES  27  19  72 N14G29    30.26R WCI  16
6HR MIN TEMP:  27; 6HR MAX TEMP:  34; 6HR PCP:  0.01;

COLDWATER*     FLURRIES  27  20  75 NW13G23   30.17R WCI  16
6HR MIN TEMP:  27; 6HR MAX TEMP:  32;

HILLSDALE*     LGT SNOW  26  20  78 NW17G29   30.12R WCI  14
6HR MIN TEMP:  26; 6HR MAX TEMP:  32;

HOLLAND        FLURRIES  25  15  66 NW10G20   30.27R WCI  15
6HR MIN TEMP:  25; 6HR MAX TEMP:  35; 6HR PCP: TRACE;

GRAND RAPIDS   CLOUDY    23  14  68 NW15      30.22R WCI  10
6HR MIN TEMP:  23; 6HR MAX TEMP:  32; 6HR PCP: TRACE;

KALAMAZOO      CLOUDY    25  15  66 N15       30.21R WCI  13
6HR MIN TEMP:  25; 6HR MAX TEMP:  33; 6HR PCP: TRACE;

STURGIS*       CLOUDY    27  21  80 N12G25    30.18R WCI  16
THREE RIVERS*  CLOUDY    27  19  74 N12G21    30.21R WCI  16
6HR MIN TEMP:  27; 6HR MAX TEMP:  33;


$$
OHZ001>008-015>018-024>025-300700-
NORTHWEST OHIO

CITY           SKY/WX    TMP DP  RH WIND       PRES   REMARKS
DEFIANCE       FLURRIES  32  25  75 NW24G30   30.14R WCI  19
6HR MIN TEMP:  32; 6HR MAX TEMP:  35; 6HR PCP: TRACE;

FINDLAY        CLOUDY    32  26  78 W10       30.09S WCI  24
6HR MIN TEMP:  32; 6HR MAX TEMP:  34; 6HR PCP: TRACE;

TOLEDO EXPRESS LGT SNOW  28  23  81 N15       30.11R WCI  16
6HR MIN TEMP:  28; 6HR MAX TEMP:  33; 6HR PCP: TRACE;

TOLEDO METCALF CLOUDY    31  19  61 NW17      30.12R WCI  19
6HR MIN TEMP:  31; 6HR MAX TEMP:  34; 6HR PCP: TRACE;

LIMA           CLOUDY    33  27  78 W12       30.11R WCI  24
6HR MIN TEMP:  33; 6HR MAX TEMP:  34; 6HR PCP: TRACE;


$$
AND FOR LAKE MICHIGAN COASTAL AND OPEN LAKE BUOY OBSERVATIONS

STATION/POSITION TEMP    WIND        PRES    VSBY  WAVE
                 AIR SEA DIR/SP/G                  HT/PER
                 (F)     (DEG/KT/KT) (MB)    (MI)  (FT/S)
CALUMET HARBOR    31     340/ 14/ 22   N/A
MICHIGAN CITY     31     340/ 32/ 39   N/A
SAINT JOSEPH      31     340/ 22/ 32 1024.4R

$$
&&


USA.gov is the U.S. government's official web portal to all federal, state and local government web resources and services.